When you browse on this site, cookies collect data to enhance your experience and personalize the content and advertising you see.
Visit our Privacy Policy to learn more. By continuing to use the site, you agree to this use of cookies and data.
  • In United Kingdom
  • List of Countries
  • For 7 days
  • Water Temperature
  • Weather Map
  • Weather Widgets
  • user-avatar
    Login

    Hourly Weather Newport

    Today, 17 October, Thursday

    Time Temperature Precipitation Wind Pressure Humidity
    00:00 +8°C° 0 mm 5 mps 752 mmHg 87%
    01:00 +8°C° 0.1 mm 5 mps 752 mmHg 88%
    02:00 +8°C° 0.1 mm 5 mps 751 mmHg 88%
    03:00 +8°C° 0.1 mm 5 mps 751 mmHg 89%
    04:00 +8°C° 0.1 mm 5 mps 751 mmHg 89%
    05:00 +8°C° 0.1 mm 5 mps 751 mmHg 89%
    06:00 +8°C° 0.1 mm 6 mps 751 mmHg 89%
    07:00 +9°C° 0.2 mm 6 mps 750 mmHg 87%
    08:00 +10°C° 0.2 mm 6 mps 750 mmHg 85%
    09:00 +11°C° 0.2 mm 7 mps 750 mmHg 83%
    10:00 +11°C° 0.5 mm 7 mps 750 mmHg 82%
    11:00 +12°C° 0.5 mm 7 mps 749 mmHg 81%
    12:00 +12°C° 0.5 mm 8 mps 749 mmHg 80%
    13:00 +12°C° 0.5 mm 8 mps 749 mmHg 81%
    14:00 +12°C° 0.5 mm 9 mps 749 mmHg 81%
    15:00 +12°C° 0.5 mm 9 mps 749 mmHg 82%
    16:00 +11°C° 0.8 mm 8 mps 748 mmHg 84%
    17:00 +11°C° 0.8 mm 8 mps 748 mmHg 87%
    18:00 +10°C° 0.8 mm 7 mps 748 mmHg 89%
    19:00 +10°C° 0.8 mm 6 mps 748 mmHg 90%
    20:00 +10°C° 0.8 mm 6 mps 747 mmHg 92%
    21:00 +9°C° 0.8 mm 5 mps 747 mmHg 93%
    22:00 +9°C° 2.4 mm 5 mps 747 mmHg 94%
    23:00 +9°C° 2.4 mm 5 mps 746 mmHg 94%

    Tomorrow, 18 October, Friday

    Time Temperature Precipitation Wind Pressure Humidity
    00:00 +9°C° 2.4 mm 6 mps 746 mmHg 95%
    01:00 +9°C° 1.1 mm 6 mps 745 mmHg 93%
    02:00 +9°C° 1.1 mm 6 mps 745 mmHg 91%
    03:00 +9°C° 1.1 mm 7 mps 745 mmHg 89%
    04:00 +9°C° 0.5 mm 7 mps 745 mmHg 88%
    05:00 +8°C° 0.5 mm 7 mps 746 mmHg 87%
    06:00 +8°C° 0.5 mm 7 mps 746 mmHg 87%
    07:00 +9°C° 0.6 mm 8 mps 746 mmHg 86%
    08:00 +8°C° 0.6 mm 9 mps 746 mmHg 86%
    09:00 +9°C° 0.6 mm 10 mps 746 mmHg 85%
    10:00 +9°C° 0.6 mm 10 mps 746 mmHg 83%
    11:00 +11°C° 0.6 mm 10 mps 746 mmHg 82%
    12:00 +11°C° 0.6 mm 10 mps 746 mmHg 81%
    13:00 +11°C° 0.6 mm 10 mps 746 mmHg 81%
    14:00 +11°C° 0.6 mm 10 mps 746 mmHg 81%
    15:00 +11°C° 0.6 mm 10 mps 746 mmHg 82%
    16:00 +10°C° 0.4 mm 9 mps 745 mmHg 83%
    17:00 +10°C° 0.4 mm 9 mps 745 mmHg 85%
    18:00 +9°C° 0.4 mm 8 mps 745 mmHg 86%
    19:00 +8°C° 0.5 mm 9 mps 745 mmHg 86%
    20:00 +8°C° 0.5 mm 9 mps 745 mmHg 87%
    21:00 +10°C° 0.5 mm 9 mps 745 mmHg 87%
    22:00 +10°C° 0.7 mm 9 mps 745 mmHg 87%
    23:00 +10°C° 0.7 mm 9 mps 745 mmHg 88%

    Day after tomorrow, 19 October, Saturday

    Time Temperature Precipitation Wind Pressure Humidity
    00:00 +10°C° 0.7 mm 9 mps 745 mmHg 88%
    01:00 +8°C° 0.6 mm 9 mps 745 mmHg 89%
    02:00 +9°C° 0.6 mm 8 mps 745 mmHg 90%
    03:00 +9°C° 0.6 mm 7 mps 745 mmHg 91%
    04:00 +9°C° 0.3 mm 7 mps 745 mmHg 92%
    05:00 +8°C° 0.3 mm 7 mps 745 mmHg 93%
    06:00 +8°C° 0.3 mm 7 mps 746 mmHg 94%
    07:00 +8°C° 0.2 mm 7 mps 746 mmHg 92%
    08:00 +9°C° 0.2 mm 7 mps 746 mmHg 91%
    09:00 +9°C° 0.2 mm 8 mps 747 mmHg 90%
    10:00 +9°C° 1.2 mm 8 mps 747 mmHg 90%
    11:00 +9°C° 1.2 mm 8 mps 748 mmHg 91%
    12:00 +9°C° 1.2 mm 8 mps 748 mmHg 91%
    13:00 +10°C° 0.9 mm 7 mps 748 mmHg 90%
    14:00 +10°C° 0.9 mm 7 mps 749 mmHg 88%
    15:00 +11°C° 0.9 mm 7 mps 749 mmHg 86%
    16:00 +10°C° 0.3 mm 6 mps 749 mmHg 89%
    17:00 +9°C° 0.3 mm 6 mps 750 mmHg 91%
    18:00 +8°C° 0.3 mm 5 mps 750 mmHg 94%
    19:00 +7°C° 0.3 mm 4 mps 751 mmHg 94%
    20:00 +7°C° 0.3 mm 4 mps 751 mmHg 93%
    21:00 +8°C° 0.3 mm 3 mps 752 mmHg 93%
    22:00 +8°C° 0.2 mm 3 mps 752 mmHg 92%
    23:00 +8°C° 0.2 mm 3 mps 753 mmHg 92%

    20 October, Sunday

    Time Temperature Precipitation Wind Pressure Humidity
    00:00 +8°C° 0.2 mm 3 mps 753 mmHg 91%
    01:00 +8°C° 0.1 mm 3 mps 753 mmHg 91%
    02:00 +8°C° 0.1 mm 3 mps 754 mmHg 90%
    03:00 +8°C° 0.1 mm 3 mps 754 mmHg 90%
    04:00 +8°C° 0 mm 2 mps 754 mmHg 90%
    05:00 +8°C° 0 mm 2 mps 755 mmHg 90%
    06:00 +7°C° 0 mm 2 mps 755 mmHg 90%
    07:00 +8°C° 0 mm 2 mps 755 mmHg 88%
    08:00 +9°C° 0 mm 2 mps 756 mmHg 87%
    09:00 +10°C° 0 mm 3 mps 756 mmHg 85%
    10:00 +11°C° 0 mm 3 mps 757 mmHg 81%
    11:00 +12°C° 0 mm 3 mps 757 mmHg 78%
    12:00 +13°C° 0 mm 3 mps 758 mmHg 74%
    13:00 +12°C° 0.1 mm 4 mps 758 mmHg 75%
    14:00 +12°C° 0.1 mm 5 mps 758 mmHg 75%
    15:00 +11°C° 0.1 mm 6 mps 758 mmHg 76%
    16:00 +9°C° 0 mm 6 mps 758 mmHg 81%
    17:00 +8°C° 0 mm 5 mps 759 mmHg 85%
    18:00 +6°C° 0 mm 5 mps 759 mmHg 90%
    19:00 +6°C° 0 mm 5 mps 760 mmHg 90%
    20:00 +6°C° 0 mm 4 mps 760 mmHg 91%
    21:00 +6°C° 0 mm 4 mps 760 mmHg 92%
    22:00 +7°C° 0 mm 3 mps 760 mmHg 91%
    23:00 +7°C° 0 mm 3 mps 760 mmHg 91%

    21 October, Monday

    Time Temperature Precipitation Wind Pressure Humidity
    00:00 +7°C° 0 mm 3 mps 760 mmHg 91%
    01:00 +7°C° 0 mm 3 mps 760 mmHg 91%
    02:00 +6°C° 0 mm 4 mps 760 mmHg 90%
    03:00 +7°C° 0 mm 4 mps 760 mmHg 90%
    04:00 +7°C° 0.1 mm 4 mps 761 mmHg 90%
    05:00 +7°C° 0.1 mm 5 mps 761 mmHg 90%
    06:00 +7°C° 0.1 mm 5 mps 761 mmHg 90%
    07:00 +8°C° 0.1 mm 5 mps 762 mmHg 89%
    08:00 +9°C° 0.1 mm 6 mps 762 mmHg 87%
    09:00 +9°C° 0.1 mm 6 mps 763 mmHg 86%
    10:00 +10°C° 0 mm 6 mps 763 mmHg 84%
    11:00 +10°C° 0 mm 6 mps 764 mmHg 81%
    12:00 +11°C° 0 mm 6 mps 764 mmHg 79%
    13:00 +12°C° 0 mm 5 mps 764 mmHg 79%
    14:00 +12°C° 0 mm 5 mps 764 mmHg 78%
    15:00 +12°C° 0 mm 4 mps 764 mmHg 78%
    16:00 +11°C° 0 mm 4 mps 764 mmHg 82%
    17:00 +10°C° 0 mm 3 mps 764 mmHg 86%
    18:00 +8°C° 0 mm 3 mps 765 mmHg 90%
    19:00 +8°C° 0 mm 3 mps 765 mmHg 91%
    20:00 +7°C° 0 mm 3 mps 765 mmHg 92%
    21:00 +7°C° 0 mm 3 mps 766 mmHg 93%
    22:00 +7°C° 0 mm 3 mps 766 mmHg 93%
    23:00 +7°C° 0 mm 2 mps 766 mmHg 93%

    22 October, Tuesday

    Time Temperature Precipitation Wind Pressure Humidity
    00:00 +7°C° 0 mm 2 mps 766 mmHg 93%
    01:00 +6°C° 0 mm 2 mps 766 mmHg 93%
    02:00 +6°C° 0 mm 2 mps 766 mmHg 93%
    03:00 +6°C° 0 mm 2 mps 765 mmHg 93%
    04:00 +6°C° 0 mm 2 mps 765 mmHg 93%
    05:00 +6°C° 0 mm 2 mps 766 mmHg 93%
    06:00 +6°C° 0 mm 2 mps 766 mmHg 94%
    07:00 +7°C° 0 mm 2 mps 766 mmHg 92%
    08:00 +8°C° 0 mm 2 mps 766 mmHg 91%
    09:00 +9°C° 0 mm 2 mps 766 mmHg 90%
    10:00 +10°C° 0 mm 2 mps 766 mmHg 87%
    11:00 +12°C° 0 mm 2 mps 766 mmHg 84%
    12:00 +11°C° 0 mm 3 mps 766 mmHg 81%
    13:00 +13°C° 0 mm 2 mps 765 mmHg 80%
    14:00 +13°C° 0 mm 2 mps 765 mmHg 80%
    15:00 +13°C° 0 mm 2 mps 764 mmHg 79%
    16:00 +12°C° 0 mm 2 mps 764 mmHg 82%
    17:00 +10°C° 0 mm 1 mps 764 mmHg 86%
    18:00 +9°C° 0 mm 1 mps 764 mmHg 89%
    19:00 +9°C° 0 mm 1 mps 764 mmHg 90%
    20:00 +8°C° 0 mm 2 mps 764 mmHg 91%
    21:00 +8°C° 0 mm 3 mps 764 mmHg 91%
    22:00 +8°C° 0 mm 3 mps 764 mmHg 92%
    23:00 +8°C° 0 mm 3 mps 764 mmHg 92%
    Show more